Location: Jablonec nad Nisou
(50.7170°N, 15.1830°E)
Time: 16:22:14
(UTC+02:00)

ISS - Pass Details

Date: 30 March 2019
Orbit: 408 x 410 km, 51.6° (Epoch: 25 April)

Event Time Altitude Azimuth Distance (km) Brightness Sun altitude
Rises 20:50:35 0° 284° (WNW) 2,337 1.2 -21.6°
Reaches altitude 10° 20:52:41 10° 283° (WNW) 1,474 -0.1 -21.8°
Enters shadow 20:55:12 48° 271° (W) 542 -3.0 -22.2°
